Regional Weather Roundup
Issued by NWS Little Rock, AR

Home | Current Version | Previous Version | Graphics & Text | Print | Product List | Glossary On
Versions: 1 2 3 4 5 6 7 8 9 10 11 12 13 14 15 16 17 18 19 20 21 22 23 24 25 26 27
000
ASUS44 KLZK 160405
RWRLZK

WEATHER ROUNDUP FOR ARKANSAS
NATIONAL WEATHER SERVICE LITTLE ROCK AR
1100 PM CDT TUE APR 15 2014

NOTE: "FAIR" INDICATES FEW OR NO CLOUDS BELOW 12,000 FEET WITH NO
SIGNIFICANT WEATHER AND/OR OBSTRUCTIONS TO VISIBILITY.

ARZ001-003-010-029-160500-
NORTHWEST ARKANSAS

CITY           SKY/WX    TMP DP  RH WIND       PRES   REMARKS
FAYETTEVILLE   CLEAR     38  32  79 CALM      30.15S
FORT SMITH     CLEAR     50  30  46 SE5       30.15S
HARRISON       PTCLDY    42  24  49 SE6       30.17R
BENTONVILLE    CLEAR     43  27  52 SE7       30.14S
ROGERS         CLEAR     44  33  65 SE7       30.14S
HIGHFILL       CLEAR     42  28  57 SE7       30.13S
$$

ARZ004-005-016-160500-
NORTH CENTRAL ARKANSAS

CITY           SKY/WX    TMP DP  RH WIND       PRES   REMARKS
BATESVILLE     PTCLDY    45  30  57 SE5       30.22S
FLIPPIN        PTCLDY    39  27  60 CALM      30.18S
MTN HOME       PTCLDY    44  23  43 SE5       30.17R
$$

ARZ040-041-160500-
WEST CENTRAL ARKANSAS

CITY           SKY/WX    TMP DP  RH WIND       PRES   REMARKS
MENA           CLEAR     39  34  81 CALM      30.17F
MOUNT IDA      CLEAR     40  35  83 VRB3      30.16R
$$

ARZ009-017-025-026-028-160500-
NORTHEAST ARKANSAS

CITY           SKY/WX    TMP DP  RH WIND       PRES   REMARKS
CORNING        FAIR      41  32  70 SE9       30.25R
JONESBORO      CLEAR     43  32  65 SE3       30.25R
NEWPORT        CLEAR     43  34  70 SE8       30.26R
BLYTHEVILLE    CLEAR     41  31  67 SE5       30.26R
$$

ARZ022-023-033-042-044-160500-
CENTRAL ARKANSAS

CITY           SKY/WX    TMP DP  RH WIND       PRES   REMARKS
LITTLE ROCK    PTCLDY    45  35  68 SE9       30.23R
N LITTLE ROCK  PTCLDY    46  38  74 SE9       30.23R
JACKSONVILLE   PTCLDY    46  33  62 E5        30.23R
SEARCY         PTCLDY    42  35  76 VRB6      30.25R
HOT SPRINGS    CLEAR     44  33  65 E7        30.21R
RUSSELLVILLE   CLEAR     44  34  67 CALM      30.18R
CLINTON        FAIR      37  34  87 CALM      30.22S
$$

ARZ036-160500-
EAST ARKANSAS

CITY           SKY/WX    TMP DP  RH WIND       PRES   REMARKS
WEST MEMPHIS   CLEAR     41  31  67 S3        30.25R
$$

ARZ050-053-066-070-073-160500-
SOUTHWEST ARKANSAS

CITY           SKY/WX    TMP DP  RH WIND       PRES   REMARKS
ARKADELPHIA    FAIR      47  39  73 CALM      30.23R
CAMDEN         CLEAR     45  32  61 MISG      30.23S
TEXARKANA      CLEAR     46  33  60 S3        30.19S
EL DORADO      CLEAR     43  36  76 E6        30.23R
DE QUEEN       CLEAR     42  39  89 E3        30.16S
$$

ARZ056-057-069-160500-
SOUTHEAST ARKANSAS

CITY           SKY/WX    TMP DP  RH WIND       PRES   REMARKS
PINE BLUFF     CLEAR     45  36  70 SE9       30.24S
STUTTGART      CLEAR     45  36  70 SE7       30.24F
MONTICELLO     CLEAR     43  34  70 E3        30.24S

$$





USA.gov is the U.S. government's official web portal to all federal, state and local government web resources and services.